York, NE

1:33 AM CDT on June 28, 2017 (GMT -0500)
York Municipal

Weather History for KJYR - March, 2014

Change the Weather History Date:

Wednesday, March 12, 2014

  Actual Average Record
Temperature  
Mean Temperature 40 °F -  
Max Temperature 55 °F 48 °F 75 °F (2007)
Min Temperature 24 °F 27 °F 0 °F (1956)
Degree Days  
Heating Degree Days 26    
Moisture  
Dew Point 24 °F    
Average Humidity 64    
Maximum Humidity 100    
Minimum Humidity 23    
Precipitation  
Precipitation 0.00 in - - ()
Sea Level Pressure  
Sea Level Pressure 30.13 in    
Wind  
Wind Speed 12 mph (NW)    
Max Wind Speed 23 mph    
Max Gust Speed 36 mph    
Visibility 10 miles    
Events      
Averages and records for this station are not official NWS values.
T = Trace of Precipitation, MM = Missing Value Source: NWS Daily Summary

Daily Weather History Graph

Daily Weather History Graph

Search for Another Location

Airport or City:

Trip Planner

Search our weather history database for the weather conditions in past years. The results will help you decide how hot, cold, wet, or windy it might be!

Date:

Astronomy

Mar. 12, 2014 Rise Set
Actual Time 7:46 AM CDT 7:33 PM CDT
Civil Twilight 7:19 AM CDT 8:01 PM CDT
Nautical Twilight 6:47 AM CDT 8:33 PM CDT
Astronomical Twilight 6:15 AM CDT 9:05 PM CDT
Moon 4:04 PM CDT (3/12) 5:20 AM CDT (3/12)
Length of Visible Light 12h 41m
Length of Day
11h 46m
Waxing Gibbous, 85% of the Moon is Illuminated
Mar 12
Waxing Gibbous
Mar 16
Full
Mar 23
Last Quarter
Mar 30
New
Apr 7
First Quarter

Hourly Weather History & Observations

Time (CDT) Temp. Windchill Dew Point Humidity Pressure Visibility Wind Dir Wind Speed Gust Speed Precip Events Conditions
12:15 AM 33.8 °F 25.8 °F 32.0 °F 93% 30.14 in 10.0 mi NNW 10.4 mph - N/A   Clear
12:35 AM 32.0 °F 24.2 °F 32.0 °F 100% 30.15 in 10.0 mi NNW 9.2 mph - N/A   Clear
12:55 AM 32.0 °F 23.6 °F 32.0 °F 100% 30.15 in 10.0 mi NNW 10.4 mph - N/A   Clear
1:15 AM 32.0 °F 24.2 °F 30.2 °F 93% 30.16 in 10.0 mi NNW 9.2 mph - N/A   Partly Cloudy
1:35 AM 32.0 °F 24.2 °F 28.4 °F 87% 30.15 in 10.0 mi NNW 9.2 mph - N/A   Partly Cloudy
1:55 AM 30.2 °F 23.4 °F 28.4 °F 93% 30.16 in 10.0 mi NNW 6.9 mph - N/A   Clear
2:15 AM 28.4 °F 20.4 °F 26.6 °F 93% 30.17 in 10.0 mi NW 8.1 mph - N/A   Clear
2:35 AM 28.4 °F 19.1 °F 26.6 °F 93% 30.18 in 10.0 mi NW 10.4 mph - N/A   Clear
2:55 AM 26.6 °F 16.8 °F 26.6 °F 100% 30.18 in 10.0 mi NW 10.4 mph - N/A   Clear
3:15 AM 26.6 °F 16.8 °F 26.6 °F 100% 30.18 in 10.0 mi NW 10.4 mph - N/A   Clear
3:35 AM 26.6 °F 16.8 °F 24.8 °F 93% 30.18 in 10.0 mi WNW 10.4 mph - N/A   Clear
3:55 AM 26.6 °F 16.8 °F 24.8 °F 93% 30.17 in 10.0 mi WNW 10.4 mph - N/A   Clear
4:15 AM 24.8 °F 14.6 °F 24.8 °F 100% 30.17 in 10.0 mi WNW 10.4 mph - N/A   Clear
4:35 AM 24.8 °F 14.6 °F 24.8 °F 100% 30.17 in 10.0 mi WNW 10.4 mph - N/A   Clear
4:55 AM 24.8 °F 14.6 °F 23.0 °F 93% 30.17 in 10.0 mi WNW 10.4 mph - N/A   Mostly Cloudy
5:15 AM 24.8 °F - 24.8 °F 100% 30.17 in 10.0 mi North - - N/A   Overcast
5:35 AM 24.8 °F - 24.8 °F 100% 30.17 in 10.0 mi North - - N/A   Scattered Clouds
5:55 AM 24.8 °F 16.1 °F 24.8 °F 100% 30.17 in 10.0 mi WNW 8.1 mph - N/A   Mostly Cloudy
6:15 AM 26.6 °F - 26.6 °F 100% 30.17 in 10.0 mi North - - N/A   Overcast
6:35 AM 26.6 °F - 26.6 °F 100% 30.17 in 10.0 mi North - - N/A   Mostly Cloudy
6:55 AM 26.6 °F - 26.6 °F 100% 30.18 in 10.0 mi North - - N/A   Scattered Clouds
7:15 AM 26.6 °F - 26.6 °F 100% 30.18 in 10.0 mi North - - N/A   Mostly Cloudy
7:35 AM 26.6 °F - 26.6 °F 100% 30.18 in 10.0 mi North - - N/A   Scattered Clouds
7:55 AM 26.6 °F - 24.8 °F 93% 30.18 in 10.0 mi North - - N/A   Clear
8:15 AM 26.6 °F - 24.8 °F 93% 30.18 in 10.0 mi North - - N/A   Clear
8:35 AM 26.6 °F - 26.6 °F 100% 30.19 in 10.0 mi North - - N/A   Clear
8:55 AM 28.4 °F - 26.6 °F 93% 30.19 in 10.0 mi North - - N/A   Clear
9:15 AM 30.2 °F 20.2 °F 28.4 °F 93% 30.19 in 10.0 mi WNW 12.7 mph - N/A   Clear
9:35 AM 32.0 °F 23.0 °F 30.2 °F 93% 30.19 in 10.0 mi WNW 11.5 mph - N/A   Clear
9:55 AM 33.8 °F 24.8 °F 32.0 °F 93% 30.19 in 10.0 mi WNW 12.7 mph - N/A   Clear
10:15 AM 35.6 °F 26.6 °F 32.0 °F 87% 30.19 in 10.0 mi WNW 13.8 mph - N/A   Clear
10:35 AM 37.4 °F 28.2 °F 33.8 °F 87% 30.19 in 10.0 mi NW 16.1 mph - N/A   Clear
10:55 AM 39.2 °F 30.5 °F 32.0 °F 75% 30.19 in 10.0 mi NW 16.1 mph - N/A   Clear
11:15 AM 41.0 °F 32.5 °F 32.0 °F 70% 30.18 in 10.0 mi NW 17.3 mph - N/A   Clear
11:35 AM 42.8 °F 34.8 °F 32.0 °F 66% 30.18 in 10.0 mi NW 17.3 mph - N/A   Clear
11:55 AM 44.6 °F 37.2 °F 32.0 °F 61% 30.18 in 10.0 mi NW 17.3 mph 25.3 mph N/A   Clear
12:15 PM 46.4 °F 38.7 °F 30.2 °F 53% 30.18 in 10.0 mi NW 20.7 mph 26.5 mph N/A   Clear
12:35 PM 48.2 °F - 28.4 °F 46% 30.17 in 10.0 mi NW 17.3 mph 25.3 mph N/A   Clear
1:15 PM 50.0 °F - 24.8 °F 37% 30.16 in 10.0 mi NW 17.3 mph 31.1 mph N/A   Partly Cloudy
1:35 PM 51.8 °F - 23.0 °F 33% 30.16 in 10.0 mi NW 23.0 mph 29.9 mph N/A   Partly Cloudy
1:55 PM 53.6 °F - 23.0 °F 30% 30.15 in 10.0 mi NNW 20.7 mph 29.9 mph N/A   Partly Cloudy
2:15 PM 53.6 °F - 21.2 °F 28% 30.14 in 10.0 mi NNW 23.0 mph 35.7 mph N/A   Partly Cloudy
2:35 PM 53.6 °F - 19.4 °F 26% 30.13 in 10.0 mi WNW 20.7 mph 31.1 mph N/A   Partly Cloudy
2:55 PM 53.6 °F - 19.4 °F 26% 30.12 in 10.0 mi NW 20.7 mph 28.8 mph N/A   Clear
3:15 PM 53.6 °F - 19.4 °F 26% 30.11 in 10.0 mi WNW 20.7 mph 27.6 mph N/A   Clear
3:35 PM 55.4 °F - 21.2 °F 26% 30.10 in 10.0 mi WNW 20.7 mph 32.2 mph N/A   Partly Cloudy
3:55 PM 55.4 °F - 21.2 °F 26% 30.10 in 10.0 mi NW 20.7 mph 28.8 mph N/A   Partly Cloudy
4:15 PM 55.4 °F - 21.2 °F 26% 30.09 in 10.0 mi NNW 15.0 mph 24.2 mph N/A   Clear
4:35 PM 55.4 °F - 21.2 °F 26% 30.09 in 10.0 mi NW 16.1 mph 26.5 mph N/A   Clear
4:55 PM 55.4 °F - 21.2 °F 26% 30.09 in 10.0 mi NW 17.3 mph 27.6 mph N/A   Clear
5:15 PM 55.4 °F - 21.2 °F 26% 30.08 in 10.0 mi WNW 17.3 mph 21.9 mph N/A   Partly Cloudy
5:35 PM 55.4 °F - 21.2 °F 26% 30.08 in 10.0 mi NW 18.4 mph 25.3 mph N/A   Partly Cloudy
5:55 PM 55.4 °F - 19.4 °F 25% 30.08 in 10.0 mi NW 17.3 mph 26.5 mph N/A   Clear
6:15 PM 55.4 °F - 19.4 °F 25% 30.07 in 10.0 mi WNW 13.8 mph 23.0 mph N/A   Clear
6:35 PM 55.4 °F - 17.6 °F 23% 30.06 in 10.0 mi WNW 16.1 mph - N/A   Clear
6:55 PM 53.6 °F - 17.6 °F 24% 30.06 in 10.0 mi WNW 11.5 mph - N/A   Clear
7:15 PM 50.0 °F - 17.6 °F 28% 30.06 in 10.0 mi WNW 8.1 mph - N/A   Clear
7:35 PM 46.4 °F 42.9 °F 17.6 °F 32% 30.06 in 10.0 mi NW 6.9 mph - N/A   Clear
7:55 PM 44.6 °F 40.7 °F 17.6 °F 34% 30.06 in 10.0 mi NW 6.9 mph - N/A   Clear
8:15 PM 44.6 °F 40.7 °F 15.8 °F 31% 30.07 in 10.0 mi NW 6.9 mph - N/A   Clear
8:35 PM 39.2 °F 35.0 °F 15.8 °F 39% 30.07 in 10.0 mi WNW 5.8 mph - N/A   Clear
8:55 PM 39.2 °F 35.0 °F 15.8 °F 39% 30.08 in 10.0 mi West 5.8 mph - N/A   Clear
9:15 PM 37.4 °F 32.8 °F 15.8 °F 41% 30.08 in 10.0 mi West 5.8 mph - N/A   Clear
9:35 PM 32.0 °F 25.6 °F 14.0 °F 48% 30.08 in 10.0 mi West 6.9 mph - N/A   Clear
9:55 PM 32.0 °F 24.8 °F 14.0 °F 48% 30.08 in 10.0 mi WSW 8.1 mph - N/A   Clear
10:15 PM 32.0 °F 25.6 °F 14.0 °F 48% 30.07 in 10.0 mi WSW 6.9 mph - N/A   Clear
10:35 PM 30.2 °F 23.4 °F 14.0 °F 51% 30.07 in 10.0 mi WSW 6.9 mph - N/A   Clear
10:55 PM 32.0 °F 24.8 °F 14.0 °F 48% 30.07 in 10.0 mi WSW 8.1 mph - N/A   Clear
11:15 PM 32.0 °F 24.8 °F 15.8 °F 51% 30.07 in 10.0 mi WSW 8.1 mph - N/A   Clear
11:35 PM 28.4 °F 19.7 °F 14.0 °F 55% 30.06 in 10.0 mi West 9.2 mph - N/A   Clear
11:55 PM 28.4 °F 20.4 °F 15.8 °F 59% 30.06 in 10.0 mi West 8.1 mph - N/A   Clear